Theta_e
282 283 283 285 286 288 290 288 287 284 285 288 282 283 285 286 288 289 290 294 300 305 306 305 304 303 303 304 305 306 307 306 305 305 305 304 304 304
280 281 281 282 284 284 285 287 287 286 284 285 287 283 284 286 287 288 288 292 296 301 303 303 302 301 301 302 303 304 305 305 304 304 303 303 303 303
279 278 280 281 282 282 282 283 284 285 283 286 287 284 282 283 284 286 287 288 289 296 300 301 301 301 300 300 301 302 303 303 303 303 302 302 302 302
278 279 279 281 279 280 281 281 282 284 283 282 285 285 282 283 283 283 285 287 286 291 297 299 300 300 300 300 300 301 301 301 301 302 301 301 301 301
278 278 278 279 279 280 280 281 281 283 284 283 283 284 282 281 282 283 283 284 285 288 293 297 298 299 299 299 299 299 299 299 300 300 300 299 299 299
278 278 278 278 278 279 280 280 281 281 282 282 282 282 283 282 281 281 280 282 282 283 287 290 294 295 298 298 297 296 297 297 298 298 298 298 297 297
277 278 278 278 281 281 280 280 280 280 281 281 281 281 282 278 280 282 282 283 282 284 282 283 286 289 291 296 294 294 296 297 297 297 296 296 296 296
274 275 276 277 278 280 281 282 282 280 280 280 280 280 281 282 282 282 281 281 279 282 282 281 284 285 288 290 294 295 296 296 296 296 295 295 294 295
271 272 273 274 275 276 278 280 280 282 283 281 280 281 281 283 283 282 282 283 282 281 282 281 282 282 286 287 292 294 295 295 295 295 295 294 293 293
270 270 271 271 272 273 273 273 274 275 276 278 279 280 282 284 285 285 284 284 284 285 282 280 282 280 283 285 290 293 294 294 295 294 294 294 293 293
269 270 270 270 273 275 273 271 272 273 277 279 280 282 284 286 287 285 283 282 281 281 280 281 282 281 281 282 284 291 293 294 294 294 293 293 293 292
269 270 272 272 274 275 273 271 269 271 273 273 275 277 279 280 284 285 284 282 281 281 283 280 280 278 276 280 282 283 287 292 293 294 293 293 292 289
268 269 270 273 274 275 276 272 271 273 273 273 273 274 276 278 280 282 283 284 283 282 281 281 281 279 279 274 278 281 283 286 289 291 293 293 292 290
268 269 270 273 275 276 276 277 278 277 274 271 270 271 273 275 279 281 283 284 285 285 286 283 279 281 278 279 277 279 280 282 285 287 288 291 292 292
271 272 276 276 277 276 276 276 274 271 269 268 267 269 271 275 278 281 282 283 283 285 286 284 283 281 281 278 278 277 277 280 283 284 286 286 287 287
273 272 273 275 276 275 273 273 272 271 270 269 269 270 271 272 273 276 280 281 280 281 285 286 284 283 280 280 280 276 279 278 282 283 284 285 286 287
274 271 270 270 270 271 268 268 268 268 267 268 268 269 270 270 271 275 280 280 279 279 280 282 283 283 283 281 279 279 277 279 280 282 282 281 283 285
268 263 263 264 265 266 266 267 269 269 268 269 268 268 269 270 272 275 280 280 279 279 279 278 278 279 274 275 282 278 277 278 278 280 280 279 279 281
258 260 261 262 263 263 264 264 266 269 270 269 269 269 271 271 272 276 277 279 279 279 279 274 277 276 274 273 269 281 276 277 276 277 278 278 277 276
258 258 259 260 261 262 263 265 267 268 268 268 269 270 271 272 275 276 277 277 277 277 277 273 276 276 275 273 271 269 280 276 275 276 276 277 278 279
258 258 259 259 260 261 262 264 266 268 268 268 268 269 271 272 276 277 277 277 277 277 274 270 274 277 278 274 270 269 275 280 278 276 275 273 271 272
259 259 259 259 260 261 262 263 265 267 269 268 268 270 271 274 274 276 277 276 276 276 273 273 275 275 273 273 269 266 269 274 278 279 278 275 271 267
259 260 260 260 261 262 263 263 264 265 267 269 272 272 273 274 276 276 275 276 275 275 272 270 271 273 273 272 270 269 269 270 271 271 272 275 275 275
Wind_Speed
5 5 4 5 4 5 6 5 7 10 13 6 4 5 5 5 10 9 11 16 23 22 21 21 21 21 22 22 22 21 20 19 18 16 16 15 15 14
6 6 5 4 5 4 4 5 6 9 13 2 6 5 4 5 7 9 11 17 21 24 23 22 23 23 23 23 23 22 21 21 20 19 18 17 16 16
8 6 8 6 6 5 4 4 6 6 12 11 6 5 4 6 6 7 9 10 10 23 25 24 23 23 23 24 24 24 23 22 22 21 20 19 18 18
10 10 11 7 7 6 5 7 7 8 8 15 12 8 7 7 6 7 8 8 9 17 27 26 25 25 24 24 25 24 23 23 23 22 22 21 20 19
12 11 12 10 11 8 7 8 7 7 8 9 11 7 6 3 6 6 6 8 7 16 23 27 27 27 26 25 25 24 23 22 22 21 21 22 21 21
14 13 14 12 12 11 10 10 10 9 9 9 10 10 8 5 4 4 5 5 7 7 15 17 21 25 27 27 26 25 24 24 24 23 22 21 23 22
15 15 14 15 22 21 12 12 12 10 9 10 11 9 9 4 8 5 9 6 9 9 8 10 10 11 15 26 23 26 26 26 25 24 23 23 23 22
16 15 15 16 19 26 27 28 23 14 15 14 13 13 14 8 7 9 8 6 8 8 8 10 10 13 13 13 24 26 29 28 27 26 25 25 24 23
16 15 15 12 17 15 20 27 25 26 28 18 19 19 17 12 8 10 12 11 13 3 9 10 11 15 13 14 28 29 30 31 30 30 28 27 26 25
15 16 16 16 15 17 17 17 18 18 18 14 17 19 18 17 13 12 11 14 12 9 9 13 7 13 10 11 28 30 32 32 31 31 30 29 28 27
15 15 15 16 21 25 17 16 17 17 19 30 34 36 37 34 27 13 13 12 13 11 10 10 8 7 8 11 11 30 31 33 32 32 31 29 28 26
13 15 21 22 26 26 17 15 17 15 15 15 16 23 27 25 33 23 16 15 12 13 10 11 9 4 4 5 10 10 14 28 30 32 32 31 29 13
11 11 11 25 28 27 27 15 17 18 19 16 15 15 15 17 15 17 21 17 15 15 7 11 10 8 6 2 2 9 11 12 15 20 31 31 32 25
13 12 13 28 30 31 26 29 32 27 12 11 11 13 14 15 14 16 18 17 17 17 12 14 6 12 10 9 9 4 7 9 10 13 14 23 31 32
14 20 34 34 34 26 26 29 26 13 13 13 14 15 14 14 17 18 17 18 19 16 15 13 13 10 10 11 8 5 6 9 9 11 11 14 16 15
19 16 20 26 30 26 18 18 12 12 13 14 14 14 14 14 15 16 13 13 12 11 13 16 16 15 12 10 10 7 9 8 12 11 10 11 12 14
20 11 12 11 11 11 9 11 12 12 13 14 14 13 13 14 16 16 16 11 13 11 10 9 13 14 12 13 11 10 10 10 9 11 11 11 11 12
11 9 10 10 11 12 12 14 13 13 12 12 12 13 14 14 15 15 12 16 15 12 9 7 8 7 2 2 11 10 10 10 8 11 9 11 11 8
6 9 9 10 11 12 12 12 15 13 12 10 12 13 12 13 21 16 18 14 10 10 9 8 10 9 11 13 2 12 11 9 9 11 11 11 10 9
6 9 10 10 11 12 12 13 13 13 10 9 11 11 12 14 11 7 7 6 7 7 8 7 10 12 12 13 8 4 19 10 10 11 9 6 4 13
9 10 10 10 11 12 12 13 14 14 10 9 9 11 11 11 10 8 10 13 13 8 9 9 13 15 4 6 4 2 6 19 13 11 9 9 9 7
9 10 10 10 11 11 12 12 13 15 8 8 9 10 10 9 10 10 6 6 8 8 8 5 6 6 4 6 6 6 4 5 9 13 18 12 9 12
10 10 10 10 10 11 11 12 12 12 11 11 9 10 10 10 9 7 4 4 5 5 6 6 5 4 4 3 7 8 8 9 7 8 6 10 9 9
Wind_Direction
317 305 295 285 280 276 270 249 260 286 282 271 256 241 242 228 229 214 216 224 229 230 227 224 226 229 228 226 225 224 221 222 223 222 220 214 212 211
312 309 301 287 289 268 256 266 249 257 277 263 267 246 256 252 244 226 225 224 222 224 229 226 224 225 227 227 226 224 219 219 218 216 218 217 215 211
311 292 286 279 286 282 266 243 253 254 267 281 267 242 240 238 245 224 225 224 228 224 221 222 221 224 226 227 225 225 222 220 218 215 217 216 216 214
299 294 294 298 278 266 262 257 246 245 257 274 278 270 230 234 229 228 230 227 230 232 226 221 219 218 220 225 225 224 222 219 219 215 215 216 215 216
296 291 290 289 288 287 274 275 263 256 250 259 270 267 265 226 244 236 220 230 232 231 234 230 222 219 218 220 224 223 222 219 218 214 213 213 214 213
291 286 285 283 281 284 277 277 278 271 265 258 263 264 256 241 235 230 243 211 233 229 234 232 229 224 219 218 220 220 219 218 217 213 209 210 213 212
285 281 280 280 282 282 284 283 277 272 273 271 268 264 252 223 232 230 243 232 223 212 222 230 229 225 223 222 220 215 216 215 216 215 210 207 210 210
294 294 293 290 286 285 283 282 276 272 270 272 271 264 266 253 234 237 239 224 252 179 213 229 213 224 221 220 219 214 213 213 212 213 213 210 209 209
293 294 294 292 296 294 291 284 283 283 277 277 272 268 271 259 253 235 233 234 241 200 206 235 201 227 222 223 215 214 213 213 210 209 210 210 209 207
293 291 291 291 289 290 287 282 279 273 271 274 273 273 270 277 253 251 249 243 248 239 196 244 189 230 222 225 222 217 212 212 212 210 208 207 209 207
292 290 292 290 288 288 282 278 273 273 276 276 277 276 274 271 260 261 243 241 241 234 201 233 219 225 211 220 218 220 218 212 210 209 207 207 207 206
288 284 283 286 290 292 291 287 286 289 290 293 279 270 270 268 267 250 250 244 236 244 210 217 214 150 230 225 208 214 220 220 216 211 207 205 201 197
280 282 280 286 291 290 288 282 276 276 275 277 274 275 276 261 252 247 246 239 237 233 199 197 213 196 210 139 255 202 208 216 214 214 212 207 199 194
289 281 279 282 283 280 277 271 274 280 288 290 284 277 275 277 262 244 243 242 241 237 220 200 225 204 209 217 222 170 204 210 218 210 204 206 206 204
277 277 284 288 285 292 296 289 287 276 268 265 265 264 265 275 270 265 237 234 241 234 226 213 215 212 203 215 203 170 160 201 212 209 206 204 196 197
281 277 272 274 272 276 277 277 273 269 264 264 262 263 267 261 258 271 241 216 222 228 221 217 213 211 216 213 202 180 181 179 194 201 199 204 206 202
309 317 310 308 306 298 277 268 261 259 256 258 258 261 262 263 254 258 239 219 215 217 217 199 204 206 208 205 208 199 190 186 187 192 190 199 200 203
327 321 307 305 302 303 303 296 282 258 248 251 257 261 260 260 263 260 251 218 214 212 206 182 182 185 111 270 220 197 199 194 180 188 189 198 194 191
326 311 305 307 305 301 298 291 291 279 267 254 259 263 267 270 272 227 240 227 217 211 200 177 187 193 202 215 193 217 189 187 174 188 187 197 194 179
312 310 307 307 305 301 301 297 293 283 267 258 257 260 269 278 257 254 234 221 212 198 190 174 194 199 205 210 188 219 200 180 180 186 185 175 165 168
319 315 310 308 307 306 304 305 302 296 262 257 257 264 268 280 292 270 238 215 206 196 190 188 204 202 174 89 122 155 185 197 192 181 167 162 161 157
315 313 313 310 306 307 309 310 316 322 285 257 259 259 261 268 278 285 236 194 197 194 199 179 159 156 162 176 165 147 136 154 186 184 178 156 173 182
316 316 315 313 312 314 317 320 321 321 325 328 292 267 263 260 256 247 206 213 206 177 150 139 144 160 174 171 143 147 148 147 139 133 107 119 157 179